Location: Barrio Lancharejo
(40.3485°N, 5.5641°W)
Time: 07:18:18
(UTC+00:00)

Daily predictions for brighter satellites

Satellite Brightness Start Highest point End
(mag) Time Altitude Azimuth Time Altitude Azimuth Time Altitude Azimuth
USA 267 3.5 19:45:26 10° ENE 19:51:42 47° SE 19:57:56 10° SSW
IRS-1A Rocket 4.4 19:47:10 10° SSE 19:52:41 64° ENE 19:58:23 10° N
Cosmos 2366 rocket 4.0 19:47:37 10° S 19:53:48 64° E 19:59:55 10° NNE
Lacrosse 5 4.5 19:56:10 10° NNW 19:57:57 12° N 19:59:45 10° NNE
MOS 1 Rocket 3.8 19:55:08 10° N 20:00:37 82° WNW 20:05:56 10° SSW
Cosmos 1862 4.3 19:58:01 10° SSE 20:01:27 27° E 20:04:54 10° NNE
Sich 1 4.5 19:59:18 10° SE 20:02:28 20° E 20:05:39 10° NE
SJ-6B 2.9 20:00:17 10° SSE 20:04:20 64° ENE 20:08:20 10° N
CZ-2C R/B 4.1 19:59:46 10° S 20:04:26 44° W 20:09:00 10° NNW
SL-8 Rocket 4.2 19:59:55 10° S 20:06:05 82° W 20:12:20 10° N
Cosmos 2082 Rocket 3.6 20:03:12 10° SE 20:06:47 17° E 20:10:22 10° ENE
Gbstr 26 Del rocket 4.0 20:03:25 10° WNW 20:06:52 33° SW 20:10:15 10° SSE
CZ-4 R/B 4.5 20:10:03 10° WSW 20:11:36 12° W 20:13:10 10° WNW
Cosmos 1500 Rocket 3.5 20:08:11 10° S 20:12:28 73° E 20:16:47 10° NNE
Ariane Rocket 3.2 20:11:28 10° S 20:16:31 76° WSW 20:21:36 10° NNW
USA 186 2.4 20:15:47 10° S 20:18:00 38° W 20:20:09 10° NNW
Resurs 1-3 4.0 20:13:56 10° SE 20:18:07 46° ENE 20:22:18 10° N
BREEZE-M DEB (TANK) 4.0 20:11:09 10° WNW 20:18:54 39° SW 20:21:47 10° SSE
SL-08 R/B 4.5 20:14:28 10° S 20:20:39 67° E 20:26:46 10° NNE
FREGAT/IRIS 3.0 20:18:54 10° S 20:21:29 52° W 20:24:04 10° NNW
Cosmos 1992 Rocket 4.0 20:16:25 10° NNW 20:21:41 87° ENE 20:26:54 10° SSE
ARGOS 4.0 20:16:48 10° S 20:22:02 52° W 20:27:18 10° NNW
Cosmos 407 Rocket 4.2 20:17:41 10° SSE 20:22:27 34° E 20:27:12 10° NE
SL-8 R/B 4.1 20:19:55 10° NW 20:24:42 58° NNE 20:28:49 14° ESE
CZ-2C R/B 2.6 20:21:22 10° NNE 20:26:34 86° WNW 20:31:46 10° SSW
Meteor 1-10 Rocket 4.4 20:27:46 10° N 20:33:23 59° ENE 20:38:47 11° SSE
Cosmos 1782 3.5 20:30:46 10° NNW 20:34:42 55° W 20:38:37 10° S
Cosmos 1805 Rocket 3.6 20:31:13 10° S 20:35:34 62° E 20:39:59 10° NNE
H-2A R/B 4.0 20:31:28 10° SSW 20:35:53 28° W 20:40:15 10° NW
BREEZE-M DEB (TANK) 1.9 20:31:45 10° WNW 20:37:23 85° SW 20:39:00 23° SE
Cosmos 1980 Rocket 3.6 20:39:33 10° N 20:44:01 23° NE 20:47:05 15° E
SL-4 R/B 1.7 20:40:48 10° SW 20:44:52 74° SE 20:48:38 10° ENE
BREEZE-M DEB (TANK) 3.9 20:44:38 10° WNW 20:46:52 28° N 20:50:56 10° NE
Cosmos 1140 Rocket 3.8 20:43:06 10° S 20:48:03 45° ESE 20:53:02 10° NNE
ATLAS 5 CENTAUR R/B 2.4 20:46:38 10° NNW 20:52:33 85° ENE 20:57:17 21° SE
Cosmos 389 Rocket 2.3 20:52:52 10° N 20:56:19 87° WSW 20:58:13 25° S
Cosmos 2228 Rocket 3.8 20:52:38 10° NNW 20:56:57 53° W 21:01:12 10° S
Cosmos 1833 Rocket 2.6 20:51:24 10° SSW 20:56:59 82° ESE 21:02:38 10° NNE
Cosmos 1633 Rocket 3.5 20:55:05 25° SE 20:57:10 41° E 21:01:19 10° NNE
Cosmos 1812 2.6 20:55:37 10° N 20:59:29 86° E 21:01:40 24° S
SPOT 3 Rocket 3.8 20:54:53 11° S 20:59:55 69° WSW 21:05:07 10° NNW
Cosmos 1697 Rocket 2.9 20:54:36 10° NNW 21:00:07 54° ENE 21:03:04 26° SE
Cosmos 1867 3.8 20:58:11 10° S 21:03:19 45° ESE 21:08:30 10° NE
CENTAUR R/B 3.8 21:04:46 18° E 21:04:46 18° E 21:07:59 10° ENE
Resurs 01 Rocket 1.7 21:05:06 21° S 21:08:04 76° WSW 21:12:30 10° NNW
FALCON 9 DEB 3.0 21:07:05 10° SW 21:10:35 89° SE 21:14:05 10° NE
Landsat 7 4.1 21:08:59 32° SE 21:10:51 50° ENE 21:15:28 10° N
Cosmos 220 Rocket 3.9 21:06:41 10° NNW 21:10:55 85° WSW 21:12:45 33° SSE
Cosmos 1707 Rocket 3.4 21:06:43 10° N 21:11:04 73° E 21:12:53 34° SSE
Cosmos 1656 3.9 21:05:54 10° NNW 21:11:21 67° WSW 21:14:58 22° S
Cosmos 1441 Rocket 4.0 21:08:05 10° SSW 21:11:47 49° WNW 21:15:28 10° N
deb Kosmos-1763 4.1 21:14:16 51° ESE 21:14:30 52° ESE 21:18:03 10° NNE
Cosmos 676 Rocket 4.2 21:14:02 25° SSE 21:16:55 51° ESE 21:22:05 10° NNE
IGS 5A 3.5 21:17:35 44° SE 21:18:38 60° ENE 21:22:43 10° N
Cosmos 1470 Rocket 4.0 21:19:31 39° ESE 21:19:53 40° E 21:24:00 10° NNE
Cosmos 1934 Rocket 4.0 21:16:23 16° S 21:21:39 77° E 21:28:02 10° N
Aureole 1 Rocket 4.2 21:16:07 10° S 21:22:28 70° ESE 21:30:25 10° NNE
Shenzhou-11 Module 3.4 21:23:52 10° WNW 21:25:14 29° WNW 21:25:14 29° WNW
Cosmos 2360 4.2 21:21:42 10° NNW 21:27:26 69° ENE 21:29:33 39° SE
NOSS 3-2 (A) 3.3 21:23:52 10° SSW 21:29:15 56° ESE 21:35:20 10° NE
GP-B 3.0 21:25:15 10° N 21:29:41 69° E 21:30:41 51° SSE
SL-24 R/B - RUBIN 2 4.4 21:27:02 10° NNW 21:33:42 77° ENE 21:36:03 41° SE
USA 267 4.0 21:28:25 10° NE 21:34:44 53° NW 21:41:02 10° WSW
Cosmos 921 Rocket 4.0 21:31:12 10° N 21:34:50 30° ENE 21:34:50 30° ENE
NOSS 3-2 (C) 3.9 21:35:51 35° E 21:35:51 35° E 21:40:52 10° NE
ERS-1 Rocket 3.3 21:36:09 43° ESE 21:37:05 49° ENE 21:41:55 10° N
Cosmos 1862 Rocket 3.5 21:33:11 10° N 21:37:38 67° E 21:38:10 60° ESE
Meteor 2-20 Rocket 4.4 21:36:00 10° N 21:42:12 81° E 21:44:35 40° SSE
Lacrosse 5 3.9 21:39:02 10° NNW 21:42:46 20° NNE 21:45:31 14° ENE
SL-16 R/B 3.8 21:38:37 10° N 21:42:50 21° NE 21:44:17 19° ENE
Cosmos 2369 3.8 21:42:25 10° NNW 21:48:08 69° WSW 21:50:01 42° S
Cosmos 1954 Rocket 4.0 21:46:58 24° SSW 21:50:12 81° WNW 21:55:34 10° NNE
Cosmos 2082 Rocket 2.6 21:44:37 10° SW 21:50:16 64° WNW 21:55:55 10° NNE
Cosmos 1818 4.0 21:46:16 10° NW 21:51:34 54° WSW 21:53:03 41° SSW
Spot 2 Rocket 3.8 21:51:36 40° SSW 21:53:17 62° WSW 21:58:21 10° NNW
Cosmos 1184 Rocket 3.8 21:53:56 46° NW 21:53:56 46° NW 21:56:39 10° N
Meteor 1-4 Rocket 3.4 21:53:34 10° NNW 21:56:38 43° W 21:56:38 43° W
CARTOSAT-1 3.4 21:57:12 78° ENE 21:57:12 78° ENE 22:01:27 10° N
Cosmos 2278 3.6 21:51:41 10° NNW 21:57:26 87° WSW 21:58:39 58° SSE
Terra 2.1 22:00:02 50° ENE 22:00:02 50° ENE 22:04:34 10° N
Cosmos 2123 Rocket 4.3 21:53:51 10° NNW 21:59:58 62° W 22:02:48 33° SSW
Cosmos 1933 Rocket 3.5 22:01:23 74° NE 22:01:23 74° NE 22:05:29 10° N
Cosmos 1238 Rocket 4.4 22:06:53 24° N 22:06:53 24° N 22:08:14 10° N
Cosmos 2322 Rocket 3.6 22:00:41 10° N 22:05:20 25° NE 22:06:13 24° ENE
Cosmos 2100 Rocket 4.4 22:05:36 42° E 22:05:36 42° E 22:11:17 10° NNE
Meteor 1-20 Rocket 4.4 22:05:30 37° SSW 22:07:53 72° W 22:13:45 10° N
USA 234 3.2 22:06:06 49° ESE 22:08:03 81° NE 22:14:37 10° NW
Okean 1 4.1 22:04:03 10° N 22:07:06 47° NNE 22:07:06 47° NNE
Cosmos 1605 Rocket 4.1 22:05:45 34° SSW 22:08:31 72° W 22:14:37 10° N
Cosmos 1437 Rocket 4.3 22:08:42 10° N 22:10:50 28° NNE 22:10:50 28° NNE
SPOT 5 2.7 22:15:08 71° NW 22:15:08 71° NW 22:19:03 10° NNW
ATLAS 3B R/B 4.1 22:21:12 20° ENE 22:21:12 20° ENE 22:23:46 10° NE
Cosmos 2360 Rocket 4.0 22:15:28 10° N 22:19:19 18° NE 22:20:19 18° ENE
Cosmos 2173 Rocket 4.2 22:21:11 52° E 22:21:11 52° E 22:27:00 10° NNE
SPOT 1/Viking Rocket 4.4 22:20:32 37° SW 22:21:40 42° W 22:26:36 10° NNW
Cosmos 405 Rocket 4.1 22:24:29 36° NNW 22:24:29 36° NNW 22:26:59 10° N
Meteor 1-19 Rocket 4.0 22:19:08 10° N 22:24:34 83° E 22:24:35 83° E
SL-4 R/B 4.1 22:21:34 10° WNW 22:24:43 23° NNW 22:27:13 13° NNE
USA 238 DEB 3.9 22:18:38 10° SW 22:25:12 66° NW 22:32:02 10° NNE
USA 238 3.9 22:18:45 10° SW 22:25:18 66° NW 22:32:08 10° NNE
Cosmos 1703 Rocket 4.2 22:20:57 10° N 22:24:15 50° N 22:24:15 50° N
Cosmos 2242 Rocket 4.0 22:21:13 10° N 22:24:58 60° NNW 22:24:58 60° NNW
Cosmos 1980 Rocket 2.5 22:22:50 10° NNW 22:28:22 54° WSW 22:28:51 52° SW
Meteor 1-14 Rocket 4.2 22:29:25 71° SSW 22:30:03 82° W 22:36:00 10° N
Cosmos 1763 Rocket 3.7 22:26:14 10° NNW 22:31:09 62° NE 22:31:09 62° NE
ATLAS 5 CENTAUR R/B 4.4 22:32:53 10° WNW 22:36:50 18° WSW 22:38:51 15° SW
Cosmos 2016 Rocket 4.4 22:39:51 48° ENE 22:39:51 48° ENE 22:45:23 10° NNE
Meteor 1-5 Rocket 4.5 22:40:38 60° ENE 22:40:38 60° ENE 22:45:57 10° NNE
Cosmos 2061 Rocket 4.4 22:41:22 48° ENE 22:41:22 48° ENE 22:46:38 10° NNE
Cosmos 1459 Rocket 3.9 22:42:36 78° E 22:42:38 78° E 22:48:58 10° N
Cosmos 1697 Rocket 4.5 22:39:37 10° NW 22:43:36 20° W 22:44:48 19° WSW
Okean 1-7 4.1 22:42:22 10° NNW 22:45:21 42° NNW 22:45:21 42° NNW
MOS 1-B Rocket 4.2 22:42:11 10° NNE 22:46:44 52° NE 22:46:44 52° NE
CENTAUR R/B 2.7 22:51:50 50° WSW 22:53:22 68° NW 23:00:15 10° NNE
Cosmos 1802 Rocket 3.9 22:58:41 82° ENE 22:58:41 82° ENE 23:04:55 10° N
NOSS 3-3 (A) 4.5 22:53:02 10° NW 23:00:43 74° WSW 23:01:45 66° SSW
NOSS 3-3 (C) 4.5 22:53:08 10° NW 23:00:49 74° WSW 23:01:51 66° S
Meteor 2-4 Rocket 3.9 22:55:57 10° NNW 23:00:58 68° NW 23:00:58 68° NW
Cosmos 44 4.5 22:57:45 10° NNW 23:01:33 38° NNE 23:01:33 38° NNE
Cosmos 841 Rocket 4.3 23:18:19 10° NNW 23:22:05 48° NNW 23:22:05 48° NNW
Cosmos 540 Rocket 4.4 23:19:32 10° NNW 23:23:10 46° NNW 23:23:10 46° NNW
Lacrosse 5 3.0 23:21:23 10° NW 23:24:41 40° NNW 23:24:41 40° NNW
SL-16 R/B 2.9 23:21:47 10° NNW 23:26:08 49° WNW 23:26:08 49° WNW
Terra 4.2 23:38:55 15° WNW 23:38:55 15° WNW 23:40:56 10° NW
Cosmos 2219 Rocket 3.7 23:33:39 10° N 23:38:19 27° NE 23:38:19 27° NE
Tsikada Rocket 4.2 23:34:14 10° N 23:39:45 69° N 23:39:45 69° N
Cosmos 2322 Rocket 3.3 23:44:10 10° NW 23:48:01 38° WNW 23:48:01 38° WNW
